Weather History for KBYI - February, 2014

Change the Weather History Date:

Monday, February 3, 2014

  Actual Average Record
Temperature  
Mean Temperature 27 °F 28 °F  
Max Temperature 32 °F 37 °F 67 °F (1953)
Min Temperature 22 °F 20 °F -15 °F (1979)
Degree Days  
Heating Degree Days 38 37  
Month to date heating degree days 104 111  
Since 1 July heating degree days 3994 4177  
Cooling Degree Days 0 0  
Month to date cooling degree days 0 0  
Year to date cooling degree days 0 0  
Moisture  
Dew Point 23 °F    
Average Humidity 73    
Maximum Humidity 92    
Minimum Humidity 53    
Precipitation  
Precipitation 0.01 in 0.02 in 0.24 in (1963)
Month to date precipitation 0.01 0.07  
Year to date precipitation 0.61 0.98  
Sea Level Pressure  
Sea Level Pressure 29.83 in    
Wind  
Wind Speed 14 mph (SW)    
Max Wind Speed 23 mph    
Max Gust Speed 29 mph    
Visibility 5 miles    
Events Fog , Snow    
T = Trace of Precipitation, MM = Missing Value Source: NWS Daily Summary

Daily Weather History Graph

Daily Weather History Graph

Search for Another Location

Airport or City:

Trip Planner

Search our weather history database for the weather conditions in past years. The results will help you decide how hot, cold, wet, or windy it might be!

Date:

Astronomy

Feb. 03, 2014 Rise Set
Actual Time 7:46 AM MST 5:51 PM MST
Civil Twilight 7:17 AM MST 6:21 PM MST
Nautical Twilight 6:43 AM MST 6:54 PM MST
Astronomical Twilight 6:10 AM MST 7:27 PM MST
Moon 9:44 AM MST (2/3) 10:53 PM MST (2/3)
Length of Visible Light 11h 04m
Length of Day
10h 04m
Waxing Crescent, 20% of the Moon is Illuminated
Feb 3
Waxing Crescent
Feb 6
First Quarter
Feb 14
Full
Feb 22
Last Quarter
Mar 1
New

Hourly Weather History & Observations

Time (MST) Temp. Windchill Dew Point Humidity Pressure Visibility Wind Dir Wind Speed Gust Speed Precip Events Conditions
12:53 AM 28.0 °F 17.5 °F 17.1 °F 63% 29.89 in 10.0 mi SSW 12.7 mph - N/A   Overcast
1:53 AM 28.9 °F 17.7 °F 17.1 °F 61% 29.87 in 10.0 mi South 15.0 mph - N/A   Overcast
2:53 AM 28.9 °F 18.2 °F 16.0 °F 58% 29.87 in 10.0 mi South 13.8 mph - N/A   Scattered Clouds
3:53 AM 28.9 °F 17.7 °F 16.0 °F 58% 29.86 in 10.0 mi South 15.0 mph - N/A   Mostly Cloudy
4:53 AM 30.0 °F 17.9 °F 15.1 °F 54% 29.85 in 10.0 mi South 18.4 mph - N/A   Overcast
5:53 AM 30.0 °F 17.5 °F 15.1 °F 54% 29.85 in 10.0 mi SSW 19.6 mph 25.3 mph N/A   Overcast
6:53 AM 28.9 °F 21.1 °F 16.0 °F 58% 29.84 in 10.0 mi SSW 8.1 mph - N/A   Overcast
7:53 AM 28.9 °F 17.7 °F 16.0 °F 58% 29.84 in 10.0 mi SSW 15.0 mph - N/A   Overcast
8:53 AM 28.9 °F 15.8 °F 19.9 °F 69% 29.86 in 10.0 mi SSW 20.7 mph 27.6 mph N/A   Overcast
9:24 AM 28.0 °F 15.3 °F 23.0 °F 81% 29.81 in 3.0 mi SSW 18.4 mph 27.6 mph 0.00 in Snow Light Snow
9:27 AM 27.0 °F 14.3 °F 23.0 °F 85% 29.81 in 1.5 mi South 17.3 mph - 0.00 in Snow Light Snow
9:31 AM 27.0 °F 14.3 °F 24.1 °F 89% 29.81 in 0.8 mi South 17.3 mph - 0.00 in Snow Light Snow
9:40 AM 28.0 °F 17.0 °F 24.1 °F 85% 29.81 in 2.0 mi SSW 13.8 mph - 0.00 in Snow Light Snow
9:48 AM 28.4 °F 17.0 °F 23.0 °F 80% 29.80 in 6.0 mi SSW 15.0 mph - 0.00 in Snow Light Snow
9:49 AM 28.9 °F 17.3 °F 23.0 °F 78% 29.86 in 6.0 mi SSW 16.1 mph - 0.00 in Snow Light Snow
10:16 AM 30.0 °F 17.9 °F 23.0 °F 75% 29.81 in 3.0 mi SSW 18.4 mph 24.2 mph 0.00 in Snow Light Snow
10:21 AM 28.9 °F 16.5 °F 23.0 °F 78% 29.81 in 1.8 mi SSW 18.4 mph 25.3 mph 0.00 in Snow Light Snow
10:31 AM 28.9 °F 16.9 °F 25.0 °F 85% 29.81 in 0.8 mi SSW 17.3 mph - 0.00 in Snow Light Snow
10:40 AM 28.9 °F 17.7 °F 26.1 °F 89% 29.81 in 1.2 mi SSW 15.0 mph - 0.00 in Snow Light Snow
10:53 AM 28.9 °F 16.5 °F 26.1 °F 89% 29.87 in 1.8 mi SSW 18.4 mph 23.0 mph 0.00 in Snow Light Snow
11:42 AM 32.0 °F 22.5 °F 26.1 °F 79% 29.81 in 2.0 mi SSW 12.7 mph - 0.00 in Snow Light Snow
11:53 AM 32.0 °F 22.5 °F 26.1 °F 79% 29.85 in 4.0 mi SW 12.7 mph - 0.00 in Snow Light Snow
12:03 PM 32.0 °F 23.0 °F 26.1 °F 79% 29.80 in 4.0 mi SW 11.5 mph - 0.00 in Snow Light Snow
12:26 PM 32.0 °F 23.0 °F 27.0 °F 82% 29.80 in 1.8 mi SW 11.5 mph - 0.00 in Snow Light Snow
12:39 PM 30.9 °F 22.8 °F 27.0 °F 85% 29.79 in 0.5 mi WSW 9.2 mph - 0.00 in Fog , Snow Snow
12:53 PM 30.0 °F 22.4 °F 28.9 °F 96% 29.85 in 0.8 mi SW 8.1 mph - 0.00 in Snow Light Snow
1:06 PM 30.0 °F 22.4 °F 28.9 °F 96% 29.78 in 1.2 mi SSW 8.1 mph - 0.00 in Snow Light Snow
1:13 PM 30.9 °F 24.3 °F 28.9 °F 92% 29.78 in 2.0 mi SW 6.9 mph - 0.00 in Snow Light Snow
1:20 PM 30.9 °F 22.2 °F 28.9 °F 92% 29.78 in 6.0 mi SW 10.4 mph - 0.00 in   Overcast
1:29 PM 30.9 °F 22.2 °F 28.0 °F 89% 29.78 in 3.0 mi West 10.4 mph - 0.00 in Snow Light Snow
1:38 PM 30.9 °F 20.2 °F 28.0 °F 89% 29.78 in 1.5 mi West 15.0 mph 19.6 mph 0.00 in Snow Light Snow
1:49 PM 30.2 °F 20.2 °F 28.4 °F 93% 29.78 in 2.0 mi West 12.7 mph - 0.01 in Snow Light Snow
1:53 PM 30.0 °F 19.5 °F 28.0 °F 92% 29.83 in 1.8 mi West 13.8 mph - 0.01 in Snow Light Snow
2:13 PM 30.0 °F 18.3 °F 27.0 °F 88% 29.78 in 2.0 mi West 17.3 mph 24.2 mph 0.00 in Snow Light Snow
2:22 PM 28.9 °F 17.7 °F 27.0 °F 92% 29.78 in 1.8 mi West 15.0 mph 23.0 mph 0.00 in Snow Light Snow
2:30 PM 28.9 °F 17.7 °F 26.1 °F 89% 29.78 in 1.8 mi West 15.0 mph 23.0 mph 0.00 in Snow Light Snow
2:51 PM 28.4 °F 17.5 °F 26.6 °F 93% 29.78 in 1.0 mi West 13.8 mph 23.0 mph 0.00 in Snow Light Snow
2:53 PM 28.9 °F 16.9 °F 27.0 °F 92% 29.84 in 1.0 mi West 17.3 mph 23.0 mph 0.00 in Snow Light Snow
2:58 PM 28.9 °F 18.2 °F 26.1 °F 89% 29.78 in 0.8 mi West 13.8 mph 21.9 mph 0.00 in Snow Light Snow
3:01 PM 28.9 °F 18.2 °F 26.1 °F 89% 29.79 in 1.0 mi West 13.8 mph 21.9 mph 0.00 in Snow Light Snow
3:07 PM 28.9 °F 18.2 °F 26.1 °F 89% 29.79 in 0.8 mi West 13.8 mph 19.6 mph 0.00 in Snow Light Snow
3:34 PM 28.9 °F 18.2 °F 27.0 °F 92% 29.79 in 1.2 mi West 13.8 mph 20.7 mph 0.00 in Snow Light Snow
3:43 PM 28.9 °F 18.6 °F 25.0 °F 85% 29.79 in 3.0 mi West 12.7 mph 24.2 mph 0.00 in Snow Light Snow
3:53 PM 28.9 °F 17.7 °F 25.0 °F 85% 29.85 in 8.0 mi West 15.0 mph - 0.00 in Snow Light Snow
4:36 PM 28.9 °F 18.2 °F 24.1 °F 82% 29.80 in 10.0 mi West 13.8 mph 20.7 mph 0.00 in   Overcast
4:53 PM 28.9 °F 18.6 °F 23.0 °F 78% 29.85 in 10.0 mi West 12.7 mph - 0.00 in   Overcast
5:19 PM 28.0 °F 18.1 °F 21.9 °F 78% 29.80 in 10.0 mi West 11.5 mph 18.4 mph N/A   Overcast
5:53 PM 27.0 °F 16.7 °F 21.9 °F 81% 29.86 in 10.0 mi WSW 11.5 mph - N/A   Mostly Cloudy
6:53 PM 26.1 °F 15.6 °F 19.9 °F 78% 29.88 in 10.0 mi WSW 11.5 mph - N/A   Mostly Cloudy
7:53 PM 24.1 °F 13.1 °F 19.0 °F 81% 29.88 in 10.0 mi SSW 11.5 mph - N/A   Clear
8:53 PM 24.1 °F 13.1 °F 19.0 °F 81% 29.90 in 10.0 mi SSW 11.5 mph - N/A   Clear
9:53 PM 23.0 °F 13.1 °F 18.0 °F 81% 29.92 in 10.0 mi SW 9.2 mph - N/A   Clear
10:53 PM 23.0 °F 12.4 °F 18.0 °F 81% 29.91 in 10.0 mi SSW 10.4 mph - N/A   Overcast
11:53 PM 23.0 °F 12.4 °F 19.0 °F 85% 29.91 in 10.0 mi WSW 10.4 mph - N/A   Clear